Tracking 32954 objects as of 19-Jan-2026
HD Live streaming from Space Station
objects crossing your sky now

SL-8 DEB *

Track SL-8 DEB * now!
10-day predictions


NORAD ID: 18501
Int'l Code: 1978-019E
Perigee: 635.6 km
Apogee: 651.1 km
Inclination: 74.1 °
Period: 97.4 minutes
Semi major axis: 7014 km
RCS: 0.0081 m2 (small)
Launch date: February 17, 1978
Source: Commonwealth of Independent States (former USSR) (CIS)
Launch site: PLESETSK MISSILE AND SPACE COMPLEX (PKMTR)

Note: This is SATELLITE DEBRIS
Your satellite tracking list
Your tracking list is empty




NASA's NSSDC Master Catalog

Two Line Element Set (TLE):
1 18501U 78019E   26019.16887600  .00003715  00000-0  52097-3 0  9996
2 18501  74.0513  66.2004 0011040 262.9341 154.0360 14.77819436165795
Source of the keplerian elements: AFSPC